sat.trackr.live / text

‹ back to catalog

STARLINK-31141

NORAD 58803 · 2024-012S

PAYLOAD ACTIVE UNKNOWN

§ Identity

Operator
Country
US
Launch date
2024-01-15
Launch site
AFETR
Launch vehicle
Mass (kg)
RCS (m²)

Purposes: comms

External: N2YO · Heavens-Above · Gunter

§ Orbital elements

Epoch: 2026-09-19T02:27:05.131872Z

Period
94.27 min
Inclination
43.0052°
Eccentricity
0.0000734
Mean motion
15.27450462 rev/d
Perigee alt
482.9 km
Apogee alt
483.9 km
Semi-major
6,861.6 km
B*
9.6456e-4
RAAN
153.1437°
Arg perigee
214.4075°
Mean anomaly
145.6729°
Rev number
15,081

§ Raw data

STARLINK-311411 58803U 24012S   26262.10214273  .00026270  00000+0  96456-3 0  99902 58803  43.0052 153.1437 0000734 214.4075 145.6729 15.27450462150816

JSON: /api/v1/satellites/58803 · /tle

For live sub-satellite position, see the globe view (requires WebGL).

§ Visibility from observer

Set your observer location to see the next 7 days of passes ≥ 10°. The values pass through the URL so the page stays shareable.

No JS? Fill the form by hand. The geolocation button needs JavaScript.